Location: Pandora
(40.9481°N, 83.9611°W)
Time: 20:37:48
(UTC-04:00)

N. Korean satellite - Pass Details

Date: 26 September 2021
Orbit: 450 x 495 km, 97.3° (Epoch: 25 October)

Event Time Altitude Azimuth Distance (km) Brightness Sun altitude
Rises 06:54:24 0° 11° (N) 2,532 10.4 -7.1°
Reaches altitude 10° 06:56:27 10° 11° (N) 1,657 9.5 -6.7°
Maximum altitude 07:00:01 87° 284° (WNW) 489 6.5 -6.0°
Drops below altitude 10° 07:03:37 10° 194° (SSW) 1,667 9.1 -5.4°
Sets 07:05:41 0° 194° (SSW) 2,549 10.1 -5.0°
